Moose, Wyoming, United States (83012)
Lat: 43.66N, Lon: 110.72W
Wx Zone: WYZ013
Local Info
Past Weather Observations for Friday, April 29, 2016

NOTE: This archive is for the closest National Weather Service station to Moose. Information may differ from the station used for current weather conditions.

Click here for Long-term Archive

Time Weather Temperature Dewpoint Humidity Pressure Winds Precip Visibility
23:55
Mostly Cloudy
34°F / 1°C 34°F / 1°C 100% 29.95 in
(1014 mb)
N 6.9 mph
(N 11 kph)
- 10SM
23:35
Overcast
34°F / 1°C 34°F / 1°C 100% 29.95 in
(1014 mb)
ENE 3.5 mph
(ENE 6 kph)
- 10SM
23:15
Overcast
34°F / 1°C 32°F / 0°C 93% 29.95 in
(1014 mb)
SSE 3.5 mph
(SSE 6 kph)
- 1SM
22:55
Overcast
34°F / 1°C 34°F / 1°C 100% 29.95 in
(1014 mb)
S 3.5 mph
(S 6 kph)
- 8SM
22:35
Overcast
36°F / 2°C 36°F / 2°C 100% 29.95 in
(1014 mb)
S 6.9 mph
(S 11 kph)
- 10SM
22:15
Overcast
36°F / 2°C 36°F / 2°C 100% 29.95 in
(1014 mb)
Calm - 10SM
21:55
Overcast
36°F / 2°C 36°F / 2°C 100% 29.95 in
(1014 mb)
SSW 3.5 mph
(SSW 6 kph)
0.05 in
(1.27 mm)
9SM
21:35
Overcast
36°F / 2°C 36°F / 2°C 100% 29.95 in
(1014 mb)
Calm 0.04 in
(1.02 mm)
8SM
21:15
Overcast
36°F / 2°C 36°F / 2°C 100% 29.95 in
(1014 mb)
S 3.5 mph
(S 6 kph)
0.02 in
(0.51 mm)
9SM
20:55
Overcast
37°F / 3°C 36°F / 2°C 93% 29.95 in
(1014 mb)
Calm 0.05 in
(1.27 mm)
10SM
20:35
Overcast
37°F / 3°C 36°F / 2°C 93% 29.92 in
(1013 mb)
NE 3.5 mph
(NE 6 kph)
0.02 in
(0.51 mm)
10SM
20:15
Overcast
37°F / 3°C 36°F / 2°C 93% 29.92 in
(1013 mb)
ENE 4.6 mph
(ENE 7 kph)
- 10SM
19:55
Overcast
39°F / 4°C 36°F / 2°C 87% 29.92 in
(1013 mb)
NE 3.5 mph
(NE 6 kph)
- 10SM
18:45
Overcast
Showers In Vicinity
41°F / 5°C 36°F / 2°C 81% 29.89 in
(1012 mb)
N 13.8 mph
(N 22 kph)
- 10SM
17:47
Overcast
46°F / 8°C 34°F / 1°C 62% 29.83 in
(1010 mb)
NE 12.7 mph
(NE 20 kph)
- 10SM
16:50
Mostly Cloudy
46°F / 8°C 27°F / -3°C 46% 29.83 in
(1010 mb)
NW 6.9 mph
(NW 11 kph)
- 10SM
14:51
Partly Cloudy
50°F / 10°C 27°F / -3°C 40% 29.83 in
(1010 mb)
S 11.5 mph
(S 19 kph)
- 10SM
13:51
Partly Cloudy
48°F / 9°C 27°F / -3°C 43% 29.83 in
(1010 mb)
S 8.1 mph
(S 13 kph)
- 10SM
12:51
Mostly Cloudy
48°F / 9°C 27°F / -3°C 43% 29.86 in
(1011 mb)
S 6.9 mph
(S 11 kph)
- 10SM
11:55
Mostly Cloudy
46°F / 8°C 27°F / -3°C 46% 29.89 in
(1012 mb)
S 9.2 mph
(S 15 kph)
- 10SM
10:51
Partly Cloudy
43°F / 6°C 28°F / -2°C 57% 29.89 in
(1012 mb)
Calm - 10SM
09:55
Mostly Cloudy
43°F / 6°C 28°F / -2°C 57% 29.92 in
(1013 mb)
S 3.5 mph
(S 6 kph)
- 10SM
08:51
Partly Cloudy
39°F / 4°C 28°F / -2°C 65% 29.92 in
(1013 mb)
NE 8.1 mph
(NE 13 kph)
- 10SM
07:51
Mostly Cloudy
Showers In Vicinity
36°F / 2°C 30°F / -1°C 81% 29.95 in
(1014 mb)
Calm - 10SM
06:55
Mostly Cloudy
Showers In Vicinity
34°F / 1°C 30°F / -1°C 87% 29.95 in
(1014 mb)
Calm - 10SM
05:51
Overcast
Showers In Vicinity
34°F / 1°C 32°F / 0°C 93% 29.95 in
(1014 mb)
Calm - 8SM
05:35
Overcast
34°F / 1°C 32°F / 0°C 93% 29.95 in
(1014 mb)
NW 3.5 mph
(NW 6 kph)
- 10SM
05:15
Overcast
34°F / 1°C 32°F / 0°C 93% 29.95 in
(1014 mb)
N 6.9 mph
(N 11 kph)
- 10SM
04:55
Overcast
34°F / 1°C 32°F / 0°C 93% 29.92 in
(1013 mb)
N 9.2 mph
(N 15 kph)
- 10SM
04:35
Overcast
34°F / 1°C 32°F / 0°C 93% 29.92 in
(1013 mb)
N 6.9 mph
(N 11 kph)
- 10SM
04:15
Overcast
34°F / 1°C 32°F / 0°C 93% 29.92 in
(1013 mb)
N 5.8 mph
(N 9 kph)
- 10SM
03:55
Overcast
34°F / 1°C 32°F / 0°C 93% 29.92 in
(1013 mb)
N 9.2 mph
(N 15 kph)
- 10SM
03:35
Overcast
34°F / 1°C 32°F / 0°C 93% 29.92 in
(1013 mb)
N 9.2 mph
(N 15 kph)
- 10SM
03:15
Overcast
34°F / 1°C 30°F / -1°C 87% 29.92 in
(1013 mb)
N 8.1 mph
(N 13 kph)
- 10SM
02:55
Overcast
34°F / 1°C 32°F / 0°C 93% 29.92 in
(1013 mb)
N 8.1 mph
(N 13 kph)
- 10SM
02:35
Overcast
34°F / 1°C 32°F / 0°C 93% 29.92 in
(1013 mb)
N 5.8 mph
(N 9 kph)
- 10SM
02:15
Overcast
34°F / 1°C 32°F / 0°C 93% 29.95 in
(1014 mb)
NNW 6.9 mph
(NNW 11 kph)
- 10SM
01:55
Overcast
34°F / 1°C 34°F / 1°C 100% 29.95 in
(1014 mb)
NNW 5.8 mph
(NNW 9 kph)
- 10SM
01:35
Overcast
34°F / 1°C 34°F / 1°C 100% 29.95 in
(1014 mb)
NNW 4.6 mph
(NNW 7 kph)
- 7SM
01:15
Overcast
34°F / 1°C 34°F / 1°C 100% 29.95 in
(1014 mb)
N 4.6 mph
(N 7 kph)
- 5SM
00:55
Overcast
34°F / 1°C 34°F / 1°C 100% 29.95 in
(1014 mb)
N 5.8 mph
(N 9 kph)
- 1 1/2SM
00:35
Overcast
34°F / 1°C 34°F / 1°C 100% 29.95 in
(1014 mb)
Calm - 2SM
00:15
Overcast
36°F / 2°C 34°F / 1°C 93% 29.95 in
(1014 mb)
Calm - 5SM
Time Weather Temperature Dewpoint Humidity Pressure Winds Precip Visibility


Weather for websites

WeatherForYou.com, LLC is not responsible for any damages or problems caused by this service. Current weather conditions are obtained from the closest station including government and personal stations which may have varying degrees of accuracy. Weather forecasts are derived from the NOAA NDFD. Like all things, this site belongs to Jesus Christ... He just trusts us to maintain it. If you have any questions or comments email webmaster@weatherforyou.com

Copyright © 2016, WeatherForYou.com LLC. All rights reserved.